Weather History for Wadesboro, NC

Change the Weather History Date:

Wednesday, March 27, 2013

  Actual Average (KCLT) Record (KCLT)
Temperature  
Mean Temperature 40 °F 54 °F  
Max Temperature 54 °F 67 °F 85 °F (1950)
Min Temperature 26 °F 42 °F 19 °F (1955)
Degree Days  
Heating Degree Days 25 11  
Month to date heating degree days 392  
Since 1 July heating degree days 3091  
Cooling Degree Days 0 0  
Month to date cooling degree days 0  
Year to date cooling degree days 0  
Moisture  
Dew Point 22 °F    
Average Humidity 50    
Maximum Humidity 90    
Minimum Humidity 24    
Precipitation  
Precipitation 0.00 in 0.12 in 1.22 in (1891)
Month to date precipitation 3.51  
Year to date precipitation 10.24  
Snow  
Snow 0.00 in 0.10 in 0.40 in (1947)
Month to date snowfall 0.6  
Since 1 July snowfall 4.3  
Snow Depth -    
Sea Level Pressure  
Sea Level Pressure 30.21 in    
Wind  
Wind Speed 5 mph (NW)    
Max Wind Speed 16 mph    
Max Gust Speed 23 mph    
Visibility 10 miles    
Events      
T = Trace of Precipitation, MM = Missing Value Source: NWS Daily Summary

Daily Weather History Graph

Daily Weather History Graph

Search for Another Location

Airport:

Trip Planner

Search our weather history database for the weather conditions in past years. The results will help you decide how hot, cold, wet, or windy it might be!

Date:

Astronomy

Mar. 27, 2013 Rise Set
Actual Time 7:13 AM EDT 7:37 PM EDT
Civil Twilight 6:48 AM EDT 8:03 PM EDT
Nautical Twilight 6:18 AM EDT 8:33 PM EDT
Astronomical Twilight 5:48 AM EDT 9:03 PM EDT
Moon 8:16 PM EDT (3/27) 7:05 AM EDT (3/27)
Length of Visible Light 13h 14m
Length of Day
12h 24m
Full, 100% of the Moon is Illuminated
Mar 27
Full
Apr 3
Last Quarter
Apr 10
New
Apr 18
First Quarter
Apr 25
Full

Hourly Weather History & Observations

Time (EDT) Temp. Windchill Dew Point Humidity Pressure Visibility Wind Dir Wind Speed Gust Speed Precip Events Conditions
12:15 AM 38.1 °F 34.6 °F 24.6 °F 58% 30.17 in 10.0 mi West 4.6 mph - N/A   Clear
12:35 AM 37.9 °F 32.7 °F 24.8 °F 59% 30.17 in 10.0 mi WNW 6.9 mph - N/A   Clear
12:55 AM 38.3 °F 33.2 °F 24.3 °F 57% 30.18 in 10.0 mi WNW 6.9 mph - N/A   Clear
1:15 AM 38.3 °F 33.2 °F 23.7 °F 56% 30.18 in 10.0 mi WNW 6.9 mph - N/A   Clear
1:35 AM 37.9 °F 33.5 °F 23.5 °F 56% 30.17 in 10.0 mi WNW 5.8 mph - N/A   Clear
1:55 AM 37.6 °F 34.0 °F 23.2 °F 56% 30.17 in 10.0 mi WNW 4.6 mph - N/A   Clear
2:15 AM 37.4 °F 33.8 °F 23.2 °F 57% 30.17 in 10.0 mi West 4.6 mph - N/A   Clear
2:35 AM 36.9 °F - 23.5 °F 59% 30.17 in 10.0 mi Calm Calm - N/A   Clear
2:55 AM 35.6 °F - 24.3 °F 63% 30.17 in 10.0 mi Calm Calm - N/A   Clear
3:15 AM 34.2 °F - 24.6 °F 68% 30.17 in 10.0 mi Calm Calm - N/A   Clear
3:35 AM 32.5 °F 29.3 °F 25.9 °F 76% 30.17 in 10.0 mi SW 3.5 mph - N/A   Clear
3:55 AM 32.4 °F - 25.0 °F 74% 30.17 in 10.0 mi Calm Calm - N/A   Clear
4:15 AM 32.0 °F 28.7 °F 25.3 °F 76% 30.17 in 10.0 mi West 3.5 mph - N/A   Clear
4:35 AM 32.4 °F 29.1 °F 24.8 °F 74% 30.17 in 10.0 mi West 3.5 mph - N/A   Clear
4:55 AM 32.4 °F 29.1 °F 24.3 °F 72% 30.17 in 10.0 mi West 3.5 mph - N/A   Clear
5:15 AM 31.3 °F 27.9 °F 25.3 °F 79% 30.18 in 10.0 mi West 3.5 mph - N/A   Clear
5:35 AM 32.0 °F - 24.6 °F 74% 30.18 in 10.0 mi Calm Calm - N/A   Clear
5:55 AM 29.7 °F - 25.2 °F 83% 30.18 in 10.0 mi Calm Calm - N/A   Clear
6:15 AM 28.0 °F - 24.6 °F 87% 30.19 in 10.0 mi Calm Calm - N/A   Clear
6:35 AM 28.0 °F - 25.0 °F 88% 30.20 in 10.0 mi Calm Calm - N/A   Clear
6:55 AM 28.4 °F - 25.3 °F 88% 30.21 in 10.0 mi Calm Calm - N/A   Clear
7:15 AM 27.5 °F - 24.6 °F 89% 30.21 in 10.0 mi Calm Calm - N/A   Clear
7:35 AM 26.6 °F - 23.9 °F 90% 30.23 in 10.0 mi Calm Calm - N/A   Clear
7:55 AM 28.9 °F - 25.7 °F 88% 30.23 in 10.0 mi Calm Calm - N/A   Clear
8:15 AM 31.5 °F - 26.2 °F 81% 30.23 in 10.0 mi Calm Calm - N/A   Clear
8:35 AM 35.6 °F 32.8 °F 26.1 °F 68% 30.24 in 10.0 mi NW 3.5 mph - N/A   Clear
8:55 AM 37.6 °F 34.0 °F 25.7 °F 62% 30.25 in 10.0 mi WNW 4.6 mph - N/A   Clear
9:15 AM 39.9 °F 37.8 °F 24.6 °F 54% 30.25 in 10.0 mi WNW 3.5 mph - N/A   Clear
9:35 AM 42.4 °F 37.5 °F 22.8 °F 46% 30.25 in 10.0 mi NW 8.1 mph - N/A   Clear
9:55 AM 44.4 °F 42.0 °F 21.4 °F 40% 30.24 in 10.0 mi NW 4.6 mph - N/A   Clear
10:15 AM 45.9 °F 39.7 °F 18.3 °F 33% 30.25 in 10.0 mi WNW 13.8 mph 19.6 mph N/A   Clear
10:35 AM 46.9 °F - 19.2 °F 33% 30.25 in 10.0 mi NNW 15.0 mph 19.6 mph N/A   Clear
10:55 AM 47.3 °F - 18.5 °F 32% 30.25 in 10.0 mi WNW 9.2 mph 20.7 mph N/A   Clear
11:15 AM 47.5 °F - 18.1 °F 31% 30.25 in 10.0 mi NW 10.4 mph 20.7 mph N/A   Clear
11:35 AM 47.5 °F - 18.3 °F 31% 30.25 in 10.0 mi NW 5.8 mph 16.1 mph N/A   Clear
11:55 AM 49.1 °F - 19.6 °F 31% 30.25 in 10.0 mi NW 9.2 mph 19.6 mph N/A   Clear
12:15 PM 50.0 °F - 20.3 °F 31% 30.24 in 10.0 mi NW 11.5 mph 18.4 mph N/A   Clear
12:35 PM 49.3 °F - 20.8 °F 33% 30.24 in 10.0 mi West 4.6 mph - N/A   Clear
12:55 PM 49.5 °F - 21.2 °F 33% 30.23 in 10.0 mi WNW 10.4 mph 16.1 mph N/A   Scattered Clouds
1:15 PM 50.2 °F - 21.2 °F 32% 30.23 in 10.0 mi WNW 8.1 mph 17.3 mph N/A   Scattered Clouds
1:35 PM 50.0 °F - 20.5 °F 31% 30.22 in 10.0 mi NW 11.5 mph 18.4 mph N/A   Scattered Clouds
1:55 PM 52.2 °F - 21.4 °F 30% 30.22 in 10.0 mi NW 16.1 mph 20.7 mph N/A   Scattered Clouds
2:15 PM 53.1 °F - 21.4 °F 29% 30.21 in 10.0 mi WNW 6.9 mph - N/A   Scattered Clouds
2:35 PM 52.0 °F - 19.9 °F 28% 30.20 in 10.0 mi WNW 10.4 mph 17.3 mph N/A   Scattered Clouds
2:55 PM 53.1 °F - 19.6 °F 27% 30.20 in 10.0 mi NNW 8.1 mph 17.3 mph N/A   Scattered Clouds
3:15 PM 53.4 °F - 19.4 °F 26% 30.19 in 10.0 mi NW 9.2 mph 19.6 mph N/A   Clear
3:35 PM 52.3 °F - 18.9 °F 27% 30.19 in 10.0 mi NW 10.4 mph 18.4 mph N/A   Scattered Clouds
3:55 PM 53.8 °F - 18.9 °F 25% 30.18 in 10.0 mi NW 10.4 mph 23.0 mph N/A   Clear
4:15 PM 53.1 °F - 18.7 °F 26% 30.18 in 10.0 mi WNW 8.1 mph 11.5 mph N/A   Clear
4:35 PM 54.1 °F - 18.7 °F 25% 30.18 in 10.0 mi NW 10.4 mph 19.6 mph N/A   Clear
4:55 PM 54.1 °F - 18.0 °F 24% 30.18 in 10.0 mi NNW 15.0 mph 18.4 mph N/A   Clear
5:15 PM 54.1 °F - 18.1 °F 24% 30.17 in 10.0 mi WNW 9.2 mph - N/A   Clear
5:35 PM 53.8 °F - 18.5 °F 25% 30.17 in 10.0 mi NW 10.4 mph 16.1 mph N/A   Clear
5:55 PM 53.6 °F - 18.5 °F 25% 30.17 in 10.0 mi NW 11.5 mph 17.3 mph N/A   Clear
6:15 PM 53.1 °F - 18.3 °F 26% 30.18 in 10.0 mi NW 8.1 mph - N/A   Clear
6:35 PM 52.3 °F - 19.0 °F 27% 30.18 in 10.0 mi NW 6.9 mph - N/A   Clear
6:55 PM 51.3 °F - 18.5 °F 27% 30.18 in 10.0 mi NW 8.1 mph - N/A   Clear
7:15 PM 49.5 °F - 18.9 °F 30% 30.19 in 10.0 mi NNW 8.1 mph - N/A   Clear
7:35 PM 47.3 °F - 19.8 °F 34% 30.20 in 10.0 mi North 3.5 mph - N/A   Clear
7:55 PM 45.9 °F 43.6 °F 20.1 °F 36% 30.20 in 10.0 mi NNW 4.6 mph - N/A   Clear
8:15 PM 44.6 °F 42.2 °F 19.9 °F 37% 30.21 in 10.0 mi North 4.6 mph - N/A   Clear
8:35 PM 43.7 °F 39.7 °F 21.6 °F 41% 30.22 in 10.0 mi North 6.9 mph - N/A   Clear
8:55 PM 43.5 °F 39.4 °F 21.2 °F 41% 30.23 in 10.0 mi North 6.9 mph - N/A   Clear
9:15 PM 42.1 °F 37.7 °F 21.9 °F 45% 30.23 in 10.0 mi NNW 6.9 mph - N/A   Clear
9:35 PM 41.7 °F 38.8 °F 21.0 °F 44% 30.23 in 10.0 mi NNW 4.6 mph - N/A   Clear
9:55 PM 42.3 °F 40.5 °F 20.3 °F 42% 30.24 in 10.0 mi NW 3.5 mph - N/A   Clear
10:15 PM 39.9 °F 36.7 °F 21.7 °F 48% 30.24 in 10.0 mi NW 4.6 mph - N/A   Clear
10:35 PM 33.6 °F - 25.7 °F 73% 30.25 in 10.0 mi Calm Calm - N/A   Clear
10:55 PM 36.3 °F 33.7 °F 24.1 °F 61% 30.25 in 10.0 mi NW 3.5 mph - N/A   Clear
11:15 PM 32.9 °F - 25.2 °F 73% 30.25 in 10.0 mi Calm Calm - N/A   Clear
11:35 PM 32.0 °F - 26.2 °F 79% 30.25 in 10.0 mi Calm Calm - N/A   Clear
11:55 PM 31.6 °F - 26.1 °F 80% 30.26 in 10.0 mi Calm Calm - N/A   Clear